Fort Indiantown Gap, PA

6:08 AM EDT on May 28, 2017 (GMT -0400)
Muir Army Air Field

Weather History for KMUI - November, 2013

Change the Weather History Date:

Monday, November 4, 2013

  Actual Average Record
Temperature  
Mean Temperature 36 °F -  
Max Temperature 43 °F 54 °F 77 °F (2003)
Min Temperature 28 °F 38 °F 28 °F (1996)
Degree Days  
Heating Degree Days 30    
Moisture  
Dew Point 18 °F    
Average Humidity 52    
Maximum Humidity 77    
Minimum Humidity 31    
Precipitation  
Precipitation 0.00 in - - ()
Sea Level Pressure  
Sea Level Pressure 30.62 in    
Wind  
Wind Speed 3 mph (ENE)    
Max Wind Speed 12 mph    
Max Gust Speed 18 mph    
Visibility 10 miles    
Events      
Averages and records for this station are not official NWS values.
T = Trace of Precipitation, MM = Missing Value Source: NWS Daily Summary

Daily Weather History Graph

Daily Weather History Graph

Search for Another Location

Airport or City:

Trip Planner

Search our weather history database for the weather conditions in past years. The results will help you decide how hot, cold, wet, or windy it might be!

Date:

Astronomy

Nov. 04, 2013 Rise Set
Actual Time 6:39 AM EST 4:59 PM EST
Civil Twilight 6:11 AM EST 5:27 PM EST
Nautical Twilight 5:38 AM EST 6:00 PM EST
Astronomical Twilight 5:07 AM EST 6:31 PM EST
Moon 7:48 AM EST (11/4) 6:01 PM EST (11/4)
Length of Visible Light 11h 16m
Length of Day
10h 19m
New Moon, 2% of the Moon is Illuminated
Nov 4
New Moon
Nov 10
First Quarter
Nov 17
Full
Nov 25
Last Quarter
Dec 2
New

Hourly Weather History & Observations

Time (EST) Temp. Windchill Dew Point Humidity Pressure Visibility Wind Dir Wind Speed Gust Speed Precip Events Conditions
12:58 AM 31.8 °F - 18.3 °F 57% 30.52 in 10.0 mi NNE 2.3 mph - N/A   Clear
1:58 AM 32.4 °F 23.5 °F 17.2 °F 54% 30.54 in 10.0 mi ENE 11.5 mph 18.4 mph N/A   Clear
2:58 AM 31.1 °F 26.4 °F 16.9 °F 56% 30.55 in 10.0 mi ENE 4.6 mph - N/A   Clear
3:58 AM 31.1 °F - 16.3 °F 54% 30.57 in 10.0 mi Variable 2.3 mph - N/A   Clear
4:58 AM 29.1 °F - 17.1 °F 61% 30.60 in 10.0 mi Calm Calm - N/A   Clear
5:58 AM 28.9 °F - 16.7 °F 60% 30.61 in 10.0 mi NE 2.3 mph - N/A   Clear
6:58 AM 29.1 °F 22.1 °F 16.2 °F 58% 30.63 in 10.0 mi NNE 6.9 mph - N/A   Clear
7:58 AM 33.8 °F - 16.9 °F 50% 30.66 in 10.0 mi Variable 2.3 mph - N/A   Clear
8:58 AM 36.1 °F 31.4 °F 16.7 °F 45% 30.66 in 10.0 mi Variable 5.8 mph - N/A   Clear
9:58 AM 38.7 °F 36.3 °F 16.0 °F 40% 30.66 in 10.0 mi ENE 3.5 mph - N/A   Clear
10:58 AM 40.3 °F 38.2 °F 16.3 °F 38% 30.66 in 10.0 mi Variable 3.5 mph - N/A   Clear
11:58 AM 41.7 °F 38.8 °F 15.8 °F 35% 30.63 in 10.0 mi SSE 4.6 mph - N/A   Clear
12:58 PM 42.8 °F - 14.2 °F 31% 30.63 in 10.0 mi Variable 1.2 mph - N/A   Clear
1:58 PM 43.5 °F - 15.8 °F 33% 30.61 in 10.0 mi Variable 1.2 mph - N/A   Clear
2:58 PM 43.0 °F 41.3 °F 15.1 °F 32% 30.61 in 10.0 mi East 3.5 mph - N/A   Clear
3:58 PM 42.8 °F 41.1 °F 15.4 °F 33% 30.61 in 10.0 mi ESE 3.5 mph - N/A   Clear
4:58 PM 41.5 °F - 16.5 °F 36% 30.62 in 10.0 mi East 2.3 mph - N/A   Clear
5:58 PM 37.8 °F - 19.8 °F 48% 30.62 in 10.0 mi Calm Calm - N/A   Clear
6:58 PM 33.8 °F - 21.2 °F 60% 30.63 in 10.0 mi Calm Calm - N/A   Partly Cloudy
7:58 PM 33.3 °F - 23.2 °F 67% 30.64 in 10.0 mi Calm Calm - N/A   Clear
8:58 PM 32.4 °F - 22.6 °F 67% 30.66 in 10.0 mi Calm Calm - N/A   Clear
9:58 PM 30.4 °F - 23.9 °F 77% 30.66 in 10.0 mi Calm Calm - N/A   Clear
10:58 PM 30.9 °F - 24.4 °F 77% 30.66 in 10.0 mi NE 1.2 mph - N/A   Clear
11:58 PM 30.6 °F - 24.1 °F 77% 30.65 in 10.0 mi NE 2.3 mph - N/A   Clear